Temp_Advection
nan nan nan nan nan nan nan nan nan nan nan nan nan nan nan nan nan nan nan nan nan nan nan nan nan nan nan nan nan nan nan nan nan nan nan nan nan nan nan nan nan nan nan
nan -0 -0 0 0 -0 -0 -0 -0 -0 -0 0 0 -0 -0 -0 0 -0 -0 -0 -0 -0 -0 0 0 -0 -0 -0 -0 0 0 -0 -0 -0 -0 -0 0 0 0 0 0 -0 nan
nan 0 -0 -0 -0 -0 -0 0 0 -0 0 -0 0 0 -0 -0 0 -0 -0 0 0 -0 -0 -0 -0 -0 -0 -0 0 0 -0 -0 0 0 0 -0 -1 -0 0 0 0 -0 nan
nan 0 -0 1 0 0 0 0 -0 0 0 0 0 0 -0 0 0 -0 0 -0 -0 -0 -0 -0 -0 0 -0 -0 -0 -0 -0 0 0 0 -0 -1 -0 -0 -0 0 0 -0 nan
nan 0 1 0 0 0 0 0 0 0 -0 -0 0 0 0 0 -0 -0 -0 -0 -0 -0 0 0 -0 -0 0 0 -0 0 0 -0 -0 -0 -0 -1 -0 -0 -0 -0 -0 -0 nan
nan 0 0 0 0 0 0 0 -0 0 0 -0 -0 -0 -0 0 -0 -0 -0 0 0 -0 -0 0 0 0 0 -0 -0 -0 0 0 -0 -0 -0 -1 -0 -0 0 0 -0 -0 nan
nan -0 -0 0 0 0 0 0 0 -0 -0 0 0 -0 -0 -1 -0 0 -0 0 0 0 0 -0 -0 -0 -1 -0 -0 -0 0 0 -0 0 -0 -0 -0 0 0 0 0 0 nan
nan -0 -0 -0 -0 -0 0 0 -0 0 -0 -0 -0 0 -0 -0 -0 -0 0 0 -0 -0 0 1 0 -1 -0 1 0 -0 -0 -0 -0 0 -0 -1 -0 -0 0 0 0 -0 nan
nan -1 -0 -0 -0 -0 -0 -0 -0 -0 0 0 -0 -0 -0 -0 -0 0 -0 -0 0 -0 0 0 -0 -0 -0 -1 -0 0 1 0 -0 -1 -0 -0 -0 -0 0 0 0 -0 nan
nan -0 -1 -1 -0 -0 -0 -0 -0 -0 -0 -1 -0 -0 -0 -0 -0 0 0 0 0 0 -1 -1 -1 -0 -1 0 1 0 -2 -1 1 1 1 -0 -0 -0 0 0 -0 -0 nan
nan -0 -0 -0 -1 -0 -1 -0 -0 -0 -0 -0 -0 -0 -0 -0 -0 0 0 0 -0 -0 0 -0 -1 -1 -1 -0 -0 0 -0 0 1 1 0 -0 0 -0 -0 -0 -1 -1 nan
nan -1 -1 -0 -0 -1 -1 -1 -0 -0 -0 -0 -1 -0 -0 -0 -0 0 0 -0 0 -0 -1 -1 -0 -1 -1 -1 -1 -1 -0 0 1 2 1 0 -0 -1 -1 -1 -1 -1 nan
nan -0 -1 -1 -0 -0 -1 -1 -0 -0 -0 -0 -0 -0 -0 -0 -1 -1 -0 1 0 -1 0 1 -0 -1 -1 -1 -0 0 -0 -0 0 1 0 0 -0 -0 -0 -1 -1 -1 nan
nan -1 -1 -1 -1 -1 -0 -0 -0 -0 -0 -0 -0 -0 -0 -0 -0 -0 -0 -0 -0 -0 -0 -1 -1 -1 -1 -1 -0 -0 0 0 0 0 0 0 1 0 -0 -0 -1 -1 nan
nan -1 -1 -1 -1 -1 -1 -0 -0 -0 -0 -0 -0 -0 -1 -2 -1 -0 -1 -0 0 0 -0 -0 -0 -1 -2 -1 0 0 -0 0 0 -0 0 0 0 1 0 -1 -1 -1 nan
nan -1 -1 -1 -1 -1 -1 -2 -1 -1 -1 -0 -0 -0 -0 -1 -2 -2 -1 -1 -0 -0 -0 -0 0 -0 -1 -1 -0 1 1 -0 -1 -1 -1 -1 -0 -0 0 -0 -1 -1 nan
nan -0 -0 -1 -1 -1 -2 -2 -2 -2 -1 -1 -1 -1 -0 -0 -1 -2 -1 -1 -1 -1 -1 -0 0 -0 -1 -1 -2 -0 2 1 -1 -1 -0 1 -0 -1 -1 -0 0 0 nan
nan -0 -0 -0 -0 -1 -1 -1 -1 -2 -2 -2 -2 -1 -0 -0 -0 -1 -1 -2 -2 -1 -2 -1 -1 -0 0 0 -1 0 1 -0 -0 -1 -0 -0 -0 1 0 -0 -0 -0 nan
nan -0 -0 -1 -1 -1 -1 -1 -1 -2 -2 -2 -3 -2 -1 -1 -1 -1 -1 -1 -2 -1 -1 -1 -1 -1 -1 0 -0 -1 -1 -0 -0 1 -0 -1 -0 -0 -0 0 -0 -0 nan
nan -0 0 -0 -0 -1 -1 -1 -1 -1 -2 -2 -2 -3 -2 -1 -1 -1 -1 -1 -1 -0 -1 -1 -1 -0 -1 -2 -1 -1 -1 -2 -1 1 -0 -1 0 0 -0 -1 -0 -0 nan
nan -0 0 0 0 0 -0 -1 -1 -1 -1 -2 -3 -3 -1 -0 -2 -2 -1 -2 -2 -1 -1 -1 -1 -1 -1 -1 -0 -1 -1 -2 -3 0 -0 -1 -0 0 0 0 -0 0 nan
nan -1 -1 -0 0 1 1 0 -1 -1 -1 -2 -2 -2 -4 -3 -1 -1 -2 -3 -2 -2 -1 -1 -1 -1 -1 -1 -1 -0 -1 -1 -1 -1 -1 -1 -1 -1 -0 -0 0 0 nan
nan -0 -1 -1 -1 -0 1 1 1 -0 -1 -1 -2 -2 -2 -2 -2 -2 -3 -1 -1 -3 -1 -0 -1 -1 -1 -2 -1 -1 -1 0 -0 -1 -1 -1 -1 -0 0 -0 -1 -0 nan
nan 0 -1 -1 -1 -1 0 0 1 1 0 -1 -1 -2 -2 -2 -2 -2 -2 -3 -3 -2 -2 -2 -1 -2 -3 -3 -2 -1 -1 -0 1 1 -1 -1 -1 -0 -0 -1 -0 0 nan
nan 1 0 -0 -1 -1 -0 -0 -0 0 1 -0 -1 -1 -1 -1 -2 -1 -1 -1 -2 -3 -4 -5 -4 -4 -3 -3 -3 -3 -2 -2 -1 1 2 1 -1 -0 0 -0 -0 0 nan
nan nan nan nan nan nan nan nan nan nan nan nan nan nan nan nan nan nan nan nan nan nan nan nan nan nan nan nan nan nan nan nan nan nan nan nan nan nan nan nan nan nan nan
Wind_Speed
22 23 20 18 18 18 22 19 20 18 8 8 10 14 9 9 11 9 9 9 11 9 13 11 12 14 17 8 8 13 13 12 15 16 16 16 16 20 19 22 24 19 16
24 25 25 21 17 17 17 19 16 14 20 21 10 12 15 14 13 13 9 9 11 7 6 11 11 11 12 20 14 12 8 14 16 21 23 24 22 16 18 19 20 16 16
28 24 23 21 23 21 20 17 18 16 13 17 18 19 21 19 15 16 13 10 14 14 12 13 10 11 16 15 15 17 16 14 19 19 20 16 19 17 13 15 19 16 16
9 14 25 22 21 23 23 21 19 19 17 15 16 18 20 17 16 15 15 16 15 17 16 15 15 16 16 17 17 20 21 21 21 20 21 21 18 16 18 18 15 14 16
10 14 18 18 17 17 18 22 21 20 21 20 19 18 22 21 18 19 19 19 19 17 19 18 18 18 16 20 21 18 17 17 18 17 20 21 19 15 13 17 20 23 21
8 2 7 16 7 15 18 17 20 23 21 22 22 22 21 23 21 20 22 20 22 21 21 19 22 22 19 21 23 21 20 24 23 24 25 25 23 21 22 21 21 24 30
19 14 8 7 11 10 11 16 17 19 26 25 24 25 26 26 25 24 25 27 28 25 24 25 25 23 20 23 24 23 22 23 26 26 29 28 28 24 24 25 25 27 26
2 4 7 8 8 11 16 16 15 17 19 20 28 29 28 32 30 28 28 30 31 34 34 31 28 29 24 26 23 27 28 28 27 28 31 32 28 25 24 23 24 26 28
12 12 11 5 6 10 14 17 20 20 21 23 23 25 29 33 32 30 29 30 34 37 38 38 37 38 36 33 33 35 34 32 31 32 29 28 29 28 25 26 28 28 34
6 9 11 9 8 6 8 12 15 19 18 23 23 26 28 31 32 31 30 33 35 36 37 39 40 41 41 38 41 40 43 44 41 41 36 35 34 32 31 29 31 33 32
7 6 5 10 9 9 12 10 11 14 19 22 23 21 22 27 30 33 32 30 31 34 37 38 36 37 37 33 32 35 41 42 44 42 40 41 38 37 36 35 33 29 29
10 12 10 8 11 11 13 14 13 11 13 13 17 22 22 22 22 24 28 32 30 32 33 33 34 30 30 37 37 39 37 34 33 35 38 38 38 37 32 31 33 33 33
14 11 11 16 13 13 16 15 14 11 12 15 16 13 14 18 15 21 22 25 31 34 34 36 38 35 38 40 38 33 33 38 38 38 40 42 42 42 40 40 39 38 39
12 13 15 10 13 14 16 12 14 12 13 14 15 17 16 20 19 20 15 14 17 25 29 34 37 39 39 37 40 42 41 39 39 42 44 45 44 42 39 36 35 34 35
13 12 14 14 15 12 11 15 16 18 19 21 23 25 27 27 24 23 23 25 29 28 28 29 25 22 29 33 30 30 37 47 46 44 42 39 35 33 36 31 30 32 32
15 15 15 15 15 17 19 21 21 19 22 24 25 25 27 27 26 26 26 26 26 28 31 31 32 31 32 30 30 28 31 35 42 43 42 38 32 27 23 27 27 29 31
14 16 17 18 18 18 21 23 27 28 26 27 23 24 24 27 28 30 27 27 27 29 31 32 32 31 35 35 41 41 41 39 40 39 39 37 36 30 25 25 24 30 31
16 16 15 17 19 19 21 23 24 27 27 26 25 26 25 26 29 34 30 29 30 29 30 32 33 33 32 34 33 38 39 44 40 39 38 33 35 35 30 29 30 31 31
15 15 17 18 19 22 24 23 23 25 28 31 31 30 28 28 29 31 27 28 28 27 26 30 30 31 34 31 31 33 35 32 34 34 33 31 30 33 34 32 33 33 31
16 17 20 18 19 20 21 23 26 27 28 31 32 28 23 25 28 25 22 23 22 23 25 26 28 28 29 32 36 39 42 39 32 30 34 32 32 34 35 32 29 29 27
16 18 21 19 20 21 23 24 26 30 31 32 38 37 36 32 32 32 33 33 33 33 33 31 31 30 29 31 33 33 33 36 37 37 34 32 31 30 30 33 33 31 29
13 16 21 24 26 27 26 28 27 30 33 34 40 40 38 46 47 40 32 34 33 31 29 31 35 37 35 36 38 39 35 29 30 34 32 33 35 33 29 29 31 31 30
12 15 21 27 31 31 29 29 29 30 32 35 36 38 38 41 42 45 46 41 38 32 31 31 36 38 39 40 41 42 42 44 39 37 37 36 35 32 31 34 37 33 32
13 16 22 25 33 35 34 34 34 33 31 33 35 36 36 38 43 42 44 44 48 50 46 43 43 46 48 47 46 46 45 44 43 46 41 37 41 40 39 41 40 40 36
14 15 18 24 33 38 38 36 36 35 33 32 33 34 34 35 36 38 44 46 49 53 53 51 48 47 48 48 47 46 45 44 44 43 41 38 38 36 38 39 37 38 39
16 19 19 26 33 37 37 37 36 35 35 34 32 30 31 33 33 34 37 41 44 45 44 43 42 41 42 44 45 45 44 42 42 41 37 33 33 34 33 34 33 33 31
Wind_Direction
205 209 209 221 220 210 211 219 219 207 215 216 223 202 219 231 240 245 220 223 239 243 216 239 232 246 241 220 246 236 267 275 282 282 279 281 282 297 315 324 330 339 335
207 202 208 211 215 225 225 220 225 222 223 222 219 214 229 222 236 246 243 232 254 259 264 236 240 260 259 242 251 238 247 247 272 281 278 283 290 312 309 306 325 340 352
208 210 207 210 208 210 233 235 229 231 227 221 227 227 230 235 231 236 248 238 234 233 248 265 248 249 257 255 248 256 257 261 267 275 285 294 285 294 304 303 320 325 332
185 204 202 211 218 213 213 235 239 237 236 233 229 225 242 242 236 236 239 246 246 239 238 248 261 256 260 270 267 256 247 248 258 261 269 283 296 307 300 298 293 295 321
143 167 193 189 203 218 223 227 231 239 248 244 241 233 229 244 240 240 231 246 257 249 248 245 251 260 261 257 271 270 264 261 269 273 276 283 288 281 290 295 297 299 293
339 162 159 201 173 210 218 226 232 233 235 245 255 253 245 238 239 247 255 255 247 258 254 249 245 250 261 260 267 270 255 256 259 258 264 267 269 275 283 291 293 296 302
272 294 304 232 207 209 216 226 228 237 239 237 242 247 252 255 248 235 242 253 256 252 256 256 257 256 256 263 272 277 274 265 263 268 269 274 279 281 284 288 293 295 296
59 327 290 305 269 248 240 239 246 238 243 247 245 248 250 254 253 255 244 244 249 254 253 254 259 264 253 253 265 267 268 272 273 270 270 278 284 290 290 293 296 295 295
33 15 15 3 313 285 267 259 254 260 252 249 253 255 252 254 254 253 254 256 254 253 254 256 256 255 256 262 259 258 264 266 273 278 279 279 283 284 285 286 283 288 293
32 21 356 350 354 340 301 280 272 260 265 261 252 252 257 263 264 265 258 253 257 261 264 263 261 261 265 265 259 258 264 266 264 262 264 268 272 276 275 270 276 282 287
336 343 339 326 341 348 315 323 313 298 278 270 270 267 265 263 263 260 258 258 260 266 265 262 261 268 272 271 271 270 268 273 272 272 271 274 275 275 273 271 273 274 275
325 316 306 304 310 309 314 317 318 324 324 317 304 281 284 282 277 273 264 260 257 262 264 265 262 261 265 266 271 274 275 275 272 270 265 265 266 264 266 272 273 273 275
304 296 310 310 308 317 307 316 328 324 315 314 317 319 296 288 294 272 271 263 258 257 261 259 260 261 255 257 262 267 270 265 265 264 265 268 271 276 274 265 256 258 267
312 316 302 285 313 309 315 311 292 300 294 287 284 280 278 286 286 278 278 274 267 263 266 271 262 258 262 261 257 260 264 265 263 263 264 272 276 276 273 271 267 264 262
322 327 341 324 292 286 289 294 290 281 281 288 285 293 300 298 295 292 291 286 290 291 284 277 277 273 270 264 269 273 271 265 262 263 264 268 272 275 266 267 262 257 258
338 332 324 320 315 306 296 288 274 285 290 283 286 293 299 300 300 294 291 289 288 290 286 287 282 274 266 264 267 273 273 267 259 260 263 264 263 263 275 261 256 260 260
343 337 329 325 319 316 313 307 304 292 285 285 287 290 292 296 295 295 296 296 286 286 285 280 281 277 266 273 266 257 275 274 265 258 255 256 259 265 267 268 265 252 253
340 339 329 317 313 307 302 291 285 286 293 299 288 278 276 282 288 292 297 294 291 286 283 284 278 279 272 271 270 260 259 268 266 261 250 251 255 256 253 255 252 254 258
339 331 320 317 313 309 308 305 298 290 291 291 297 295 293 290 290 289 285 285 292 286 278 275 281 278 276 270 269 265 261 274 277 267 269 260 257 258 258 258 259 260 260
335 330 326 324 315 311 306 300 300 297 287 285 283 282 298 294 283 281 279 276 283 280 277 276 281 284 285 283 279 274 271 271 281 272 263 264 264 264 263 266 265 261 264
344 337 332 332 322 315 307 301 300 287 285 291 282 269 263 275 282 278 280 277 268 265 275 282 287 285 273 270 273 278 283 281 272 277 273 267 270 273 274 273 270 264 266
339 344 351 349 339 328 317 309 305 298 292 294 285 281 282 267 270 271 280 287 286 284 283 275 264 263 267 270 270 272 280 278 272 267 265 266 271 272 271 271 265 267 271
330 339 347 353 351 343 331 321 314 308 299 293 288 284 281 278 278 274 267 263 272 266 251 245 251 259 263 270 274 275 275 272 276 270 272 267 266 268 264 263 273 275 276
322 331 337 343 348 346 339 329 322 315 307 301 295 290 284 279 273 273 270 265 261 263 263 261 263 268 271 272 272 274 276 275 273 267 269 271 267 263 265 263 266 269 269
297 310 329 331 342 344 339 331 324 320 315 307 299 294 290 288 286 278 272 271 271 270 269 272 272 272 271 271 271 270 272 273 276 274 274 272 272 268 262 262 260 261 260
285 306 319 326 330 336 338 331 326 323 319 317 312 303 296 292 286 282 276 271 272 273 275 276 278 278 277 275 272 270 271 272 272 275 273 271 267 267 264 262 259 258 257
Height
1560 1563 1566 1569 1572 1576 1580 1585 1589 1594 1594 1595 1597 1598 1599 1602 1604 1604 1604 1604 1606 1608 1609 1610 1610 1611 1611 1611 1611 1612 1613 1614 1612 1611 1610 1609 1607 1607 1606 1604 1602 1599 1597
1554 1557 1559 1563 1567 1570 1575 1580 1584 1587 1591 1592 1593 1595 1596 1600 1602 1602 1602 1603 1604 1606 1608 1608 1608 1609 1609 1609 1610 1610 1610 1610 1609 1608 1608 1607 1606 1605 1603 1602 1600 1598 1596
1553 1559 1562 1562 1562 1565 1569 1575 1580 1583 1586 1588 1590 1592 1594 1597 1598 1599 1598 1600 1602 1604 1605 1606 1606 1607 1607 1607 1607 1607 1607 1608 1608 1607 1605 1604 1603 1603 1601 1600 1598 1597 1594
1552 1542 1557 1563 1562 1561 1567 1571 1576 1579 1582 1585 1587 1589 1591 1593 1593 1593 1594 1596 1598 1600 1600 1602 1603 1604 1604 1604 1604 1604 1604 1604 1604 1603 1602 1601 1601 1599 1598 1598 1596 1594 1592
1554 1542 1553 1558 1559 1560 1564 1569 1571 1575 1577 1580 1583 1585 1587 1587 1588 1589 1591 1592 1593 1595 1597 1597 1599 1600 1600 1600 1600 1600 1601 1601 1601 1600 1599 1598 1597 1596 1595 1594 1592 1590 1588
1547 1552 1555 1551 1554 1556 1561 1566 1568 1570 1572 1575 1576 1578 1580 1581 1584 1586 1588 1590 1591 1591 1592 1593 1595 1596 1596 1597 1596 1596 1596 1596 1596 1596 1594 1593 1592 1592 1592 1591 1589 1587 1583
1549 1550 1550 1552 1554 1557 1559 1562 1563 1566 1569 1570 1571 1573 1574 1576 1578 1581 1584 1586 1586 1587 1587 1588 1588 1590 1591 1591 1591 1591 1592 1592 1591 1591 1588 1588 1587 1588 1589 1587 1586 1584 1581
1553 1554 1554 1553 1553 1556 1558 1560 1561 1562 1563 1565 1566 1568 1569 1571 1573 1575 1578 1579 1580 1581 1583 1584 1584 1584 1586 1587 1586 1585 1584 1584 1585 1585 1584 1582 1582 1582 1582 1582 1580 1577 1575
1556 1554 1554 1554 1554 1555 1556 1557 1558 1558 1559 1560 1561 1563 1564 1565 1567 1569 1571 1572 1573 1573 1574 1575 1577 1578 1579 1581 1582 1581 1579 1577 1577 1577 1577 1577 1576 1576 1577 1576 1574 1573 1568
1556 1556 1554 1554 1554 1553 1554 1554 1554 1555 1555 1555 1556 1558 1559 1560 1561 1563 1564 1564 1564 1566 1567 1567 1569 1569 1570 1572 1573 1572 1570 1568 1571 1571 1570 1569 1569 1568 1569 1569 1568 1567 1564
1553 1553 1554 1554 1554 1553 1552 1551 1551 1551 1551 1552 1552 1553 1553 1554 1553 1555 1556 1556 1557 1558 1558 1559 1560 1560 1561 1563 1564 1562 1560 1563 1562 1561 1560 1559 1559 1558 1558 1559 1559 1559 1558
1551 1551 1551 1551 1551 1550 1550 1549 1548 1548 1547 1547 1547 1547 1549 1548 1549 1548 1548 1548 1549 1550 1550 1552 1553 1554 1554 1555 1555 1554 1554 1556 1555 1553 1552 1550 1550 1550 1551 1551 1549 1549 1548
1548 1548 1548 1548 1548 1547 1547 1546 1546 1546 1546 1546 1545 1544 1544 1542 1543 1541 1540 1541 1541 1539 1540 1540 1540 1541 1543 1544 1545 1544 1545 1546 1546 1545 1543 1541 1541 1541 1541 1541 1542 1542 1540
1544 1544 1544 1543 1545 1545 1544 1544 1545 1544 1544 1542 1541 1540 1539 1538 1539 1538 1536 1535 1534 1533 1529 1529 1530 1532 1534 1534 1534 1535 1535 1535 1535 1534 1533 1533 1533 1532 1530 1530 1530 1532 1532
1539 1538 1539 1540 1538 1538 1540 1540 1540 1540 1539 1538 1538 1537 1535 1533 1534 1532 1531 1530 1528 1525 1525 1525 1525 1525 1524 1525 1525 1524 1525 1523 1523 1522 1523 1522 1522 1522 1520 1522 1522 1523 1524
1536 1535 1535 1534 1534 1534 1533 1532 1532 1533 1534 1533 1532 1531 1529 1528 1527 1526 1525 1524 1522 1519 1517 1516 1516 1517 1516 1515 1514 1513 1515 1515 1512 1511 1511 1511 1511 1511 1512 1513 1515 1515 1514
1535 1534 1534 1533 1532 1531 1531 1529 1526 1524 1524 1524 1525 1524 1523 1522 1520 1518 1518 1516 1514 1512 1510 1510 1508 1508 1506 1503 1501 1501 1502 1503 1506 1508 1508 1505 1504 1502 1502 1504 1505 1506 1507
1535 1535 1534 1533 1531 1528 1526 1523 1521 1519 1516 1516 1517 1515 1514 1513 1512 1511 1511 1508 1506 1505 1503 1501 1500 1500 1498 1496 1494 1492 1492 1498 1499 1496 1496 1498 1500 1497 1496 1494 1496 1499 1499
1536 1534 1532 1529 1527 1525 1521 1518 1516 1514 1513 1510 1508 1508 1508 1507 1506 1505 1504 1502 1500 1498 1497 1495 1493 1491 1489 1488 1486 1486 1489 1486 1487 1471 1463 1490 1490 1492 1489 1485 1487 1489 1492
1534 1531 1528 1525 1522 1519 1517 1514 1511 1507 1504 1503 1502 1500 1501 1501 1497 1495 1496 1495 1494 1492 1490 1488 1486 1484 1481 1478 1475 1475 1476 1478 1477 1480 1482 1481 1479 1482 1479 1476 1478 1481 1483
1530 1528 1524 1521 1518 1515 1511 1507 1504 1501 1497 1494 1492 1491 1490 1489 1485 1484 1484 1484 1482 1481 1481 1480 1478 1476 1473 1470 1468 1465 1465 1465 1461 1469 1470 1470 1472 1470 1465 1467 1471 1471 1473
1529 1525 1520 1516 1512 1507 1504 1499 1496 1492 1489 1485 1482 1480 1478 1478 1476 1475 1476 1476 1475 1474 1474 1472 1466 1465 1465 1463 1461 1457 1454 1454 1456 1459 1459 1458 1460 1458 1457 1460 1462 1461 1463
1526 1522 1517 1512 1507 1502 1498 1494 1488 1484 1480 1476 1473 1470 1468 1466 1465 1464 1464 1464 1461 1457 1458 1455 1452 1452 1453 1452 1451 1449 1448 1447 1445 1445 1447 1449 1449 1448 1449 1448 1453 1453 1453
1522 1518 1513 1507 1503 1497 1492 1488 1482 1477 1472 1467 1463 1460 1456 1453 1453 1451 1450 1449 1448 1445 1444 1443 1443 1441 1440 1439 1439 1438 1437 1437 1437 1438 1438 1437 1438 1439 1441 1443 1443 1443 1443
1517 1513 1509 1503 1498 1492 1486 1482 1476 1470 1465 1460 1455 1450 1445 1442 1439 1437 1436 1435 1434 1433 1431 1431 1429 1427 1427 1425 1424 1425 1425 1425 1424 1424 1424 1424 1425 1427 1429 1430 1429 1431 1431
1511 1507 1503 1498 1494 1489 1482 1475 1469 1463 1457 1450 1444 1440 1436 1432 1428 1424 1423 1421 1420 1419 1418 1417 1416 1414 1413 1412 1411 1410 1410 1412 1413 1413 1413 1415 1415 1415 1416 1417 1417 1418 1419